Regional Weather Roundup
Issued by NWS

Home | Current Version | Previous Version | Text Only | Print | Product List | Glossary Off
Versions: 1 2 3 4 5 6 7 8 9 10 11 12 13 14 15 16 17 18 19 20 21 22 23 24 25 26 27 28 29 30 31 32 33 34 35 36 37 38 39 40 41 42 43 44 45 46 47 48 49 50

000
ASUS43 KFSD 242302
RWRSD

WEATHER ROUNDUP FOR SOUTH DAKOTA
NATIONAL WEATHER SERVICE SIOUX FALLS SD
600 PM CDT SAT SEP 24 2016

NOTE: "FAIR" INDICATES FEW OR NO CLOUDS BELOW 12,000 FEET WITH NO
SIGNIFICANT WEATHER AND/OR OBSTRUCTIONS TO VISIBILITY.


SDZ001>005-009-010-012>017-250000-
NORTHWEST AND NORTH CENTRAL SOUTH DAKOTA

CITY           SKY/WX    TMP DP  RH WIND       PRES   REMARKS
BUFFALO          N/A     52  49  89 W31G41    29.71R
FAITH            N/A     59  49  69 W31G43    29.82R
MOBRIDGE       SUNNY     77  43  29 S15G30    29.72S
$$

SDZ012>016-024>037-041>051-057-063-072>074-250000-
SOUTHWEST AND SOUTH CENTRAL SOUTH DAKOTA

CITY           SKY/WX    TMP DP  RH WIND       PRES   REMARKS
RAPID CTY ARPT SUNNY     57  38  48 W17       29.91R
PIERRE         SUNNY     75  42  30 SW15      29.80R
CUSTER         LGT RAIN  43  38  82 W20G31    29.97S
ELLSWORTH AFB  SUNNY     57  39  51 NW18G25   29.90R
PHILIP         SUNNY     69  43  38 W24G37    29.85R
PINE RIDGE     SUNNY     59  41  51 W25G36    29.99R
WINNER         FAIR      79  38  22 SW14      29.85R
$$

SDZ004>011-016>023-039-040-250000-
NORTHEAST SOUTH DAKOTA

CITY           SKY/WX    TMP DP  RH WIND       PRES   REMARKS
ABERDEEN       PTSUNNY   80  57  45 S18       29.75F
WATERTOWN      CLOUDY    72  69  90 S9        29.84S
BROOKINGS      CLOUDY    68  66  94 SE12      29.86S
SISSETON         N/A     72  69  90 S8        29.81S
$$

SDZ017-020-022-023-036>040-048>070-250000-
SOUTHEAST SOUTH DAKOTA

CITY           SKY/WX    TMP DP  RH WIND       PRES   REMARKS
SIOUX FALLS    PTSUNNY   73  69  87 S10       29.86S
HURON          SUNNY     78  56  46 S13       29.79S
CHAMBERLAIN    SUNNY     80  43  27 SW12      29.83R
MITCHELL       SUNNY     78  59  51 S10       29.82F
YANKTON        CLOUDY    73  70  88 S7        29.83F
$$

ABBREVIATIONS USED IN REMARKS
   TC - TEMPERATURE IN CELSIUS
  WCI - WIND CHILL INDEX
   HX - HEAT INDEX
  VSB - VISIBILITY





USA.gov is the U.S. government's official web portal to all federal, state and local government web resources and services.